owner,sensor,date,latitude,longitude,relative_humidity,qcFlag 
LUMCON,ioos:station:LUMCON:101:1,2010-12-01T00:00:00Z,29.2533,-90.6633,71.1,1111122 
LUMCON,ioos:station:LUMCON:101:1,2010-12-01T01:00:00Z,29.2533,-90.6633,70.5,1111122 
LUMCON,ioos:station:LUMCON:101:1,2010-12-01T02:00:00Z,29.2533,-90.6633,68.0,1111122 
LUMCON,ioos:station:LUMCON:101:1,2010-12-01T03:00:00Z,29.2533,-90.6633,67.4,1111122 
LUMCON,ioos:station:LUMCON:101:1,2010-12-01T04:00:00Z,29.2533,-90.6633,64.0,1111122 
LUMCON,ioos:station:LUMCON:101:1,2010-12-01T09:00:00Z,29.2533,-90.6633,67.3,1111122 
LUMCON,ioos:station:LUMCON:101:1,2010-12-02T00:00:00Z,29.2533,-90.6633,61.8,1111122 
LUMCON,ioos:station:LUMCON:101:1,2010-12-02T01:00:00Z,29.2533,-90.6633,71.0,1111122 
LUMCON,ioos:station:LUMCON:101:1,2010-12-02T02:00:00Z,29.2533,-90.6633,68.6,1111122 
LUMCON,ioos:station:LUMCON:101:1,2010-12-02T03:00:00Z,29.2533,-90.6633,74.5,1111122 
LUMCON,ioos:station:LUMCON:101:1,2010-12-02T04:00:00Z,29.2533,-90.6633,73.5,1111122 
LUMCON,ioos:station:LUMCON:101:1,2010-12-02T05:00:00Z,29.2533,-90.6633,71.5,1111122 
LUMCON,ioos:station:LUMCON:101:1,2010-12-02T06:00:00Z,29.2533,-90.6633,75.1,1111122 
LUMCON,ioos:station:LUMCON:101:1,2010-12-02T07:00:00Z,29.2533,-90.6633,77.7,1111122 
LUMCON,ioos:station:LUMCON:101:1,2010-12-02T08:00:00Z,29.2533,-90.6633,82.0,1111122 
LUMCON,ioos:station:LUMCON:101:1,2010-12-02T09:00:00Z,29.2533,-90.6633,82.6,1111122 
LUMCON,ioos:station:LUMCON:101:1,2010-12-02T10:00:00Z,29.2533,-90.6633,80.3,1111122 
LUMCON,ioos:station:LUMCON:101:1,2010-12-02T11:00:00Z,29.2533,-90.6633,78.1,1111122 
LUMCON,ioos:station:LUMCON:101:1,2010-12-02T12:00:00Z,29.2533,-90.6633,78.1,1111122 
LUMCON,ioos:station:LUMCON:101:1,2010-12-02T13:00:00Z,29.2533,-90.6633,75.9,1111122 
LUMCON,ioos:station:LUMCON:101:1,2010-12-02T14:00:00Z,29.2533,-90.6633,72.6,1111122 
LUMCON,ioos:station:LUMCON:101:1,2010-12-02T15:00:00Z,29.2533,-90.6633,61.8,1111122 
LUMCON,ioos:station:LUMCON:101:1,2010-12-03T00:00:00Z,29.2533,-90.6633,51.4,1111122 
LUMCON,ioos:station:LUMCON:101:1,2010-12-03T01:00:00Z,29.2533,-90.6633,45.0,1111122 
LUMCON,ioos:station:LUMCON:101:1,2010-12-03T02:00:00Z,29.2533,-90.6633,56.4,1111122 
LUMCON,ioos:station:LUMCON:101:1,2010-12-03T03:00:00Z,29.2533,-90.6633,48.7,1111122 
LUMCON,ioos:station:LUMCON:101:1,2010-12-03T04:00:00Z,29.2533,-90.6633,66.1,1111122 
LUMCON,ioos:station:LUMCON:101:1,2010-12-03T05:00:00Z,29.2533,-90.6633,69.3,1111122 
LUMCON,ioos:station:LUMCON:101:1,2010-12-03T06:00:00Z,29.2533,-90.6633,68.9,1111122 
LUMCON,ioos:station:LUMCON:101:1,2010-12-03T07:00:00Z,29.2533,-90.6633,66.1,1111122 
LUMCON,ioos:station:LUMCON:101:1,2010-12-03T08:00:00Z,29.2533,-90.6633,73.6,1111122 
LUMCON,ioos:station:LUMCON:101:1,2010-12-03T09:00:00Z,29.2533,-90.6633,70.1,1111122 
LUMCON,ioos:station:LUMCON:101:1,2010-12-03T10:00:00Z,29.2533,-90.6633,68.2,1111122 
LUMCON,ioos:station:LUMCON:101:1,2010-12-03T11:00:00Z,29.2533,-90.6633,66.3,1111122 
LUMCON,ioos:station:LUMCON:101:1,2010-12-03T12:00:00Z,29.2533,-90.6633,82.4,1111122 
LUMCON,ioos:station:LUMCON:101:1,2010-12-03T13:00:00Z,29.2533,-90.6633,85.8,1111122 
LUMCON,ioos:station:LUMCON:101:1,2010-12-03T14:00:00Z,29.2533,-90.6633,82.6,1111122 
LUMCON,ioos:station:LUMCON:101:1,2010-12-03T15:00:00Z,29.2533,-90.6633,73.9,1111122 
LUMCON,ioos:station:LUMCON:101:1,2010-12-03T16:00:00Z,29.2533,-90.6633,60.8,1111122 
LUMCON,ioos:station:LUMCON:101:1,2010-12-03T17:00:00Z,29.2533,-90.6633,61.7,1111122 
LUMCON,ioos:station:LUMCON:101:1,2010-12-03T18:00:00Z,29.2533,-90.6633,64.2,1111122 
LUMCON,ioos:station:LUMCON:101:1,2010-12-03T19:00:00Z,29.2533,-90.6633,64.8,1111122 
LUMCON,ioos:station:LUMCON:101:1,2010-12-03T20:00:00Z,29.2533,-90.6633,65.7,1111122 
LUMCON,ioos:station:LUMCON:101:1,2010-12-03T21:00:00Z,29.2533,-90.6633,64.9,1111122 
LUMCON,ioos:station:LUMCON:101:1,2010-12-03T22:00:00Z,29.2533,-90.6633,67.6,1111122 
LUMCON,ioos:station:LUMCON:101:1,2010-12-03T23:00:00Z,29.2533,-90.6633,77.3,1111122 
LUMCON,ioos:station:LUMCON:101:1,2010-12-04T00:00:00Z,29.2533,-90.6633,80.8,1111122 
LUMCON,ioos:station:LUMCON:101:1,2010-12-04T01:00:00Z,29.2533,-90.6633,82.9,1111122 
LUMCON,ioos:station:LUMCON:101:1,2010-12-04T02:00:00Z,29.2533,-90.6633,80.3,1111122 
LUMCON,ioos:station:LUMCON:101:1,2010-12-04T03:00:00Z,29.2533,-90.6633,78.7,1111122 
LUMCON,ioos:station:LUMCON:101:1,2010-12-04T04:00:00Z,29.2533,-90.6633,79.8,1111122 
LUMCON,ioos:station:LUMCON:101:1,2010-12-04T05:00:00Z,29.2533,-90.6633,80.3,1111122 
LUMCON,ioos:station:LUMCON:101:1,2010-12-04T06:00:00Z,29.2533,-90.6633,81.9,1111122 
LUMCON,ioos:station:LUMCON:101:1,2010-12-04T07:00:00Z,29.2533,-90.6633,83.5,1111122 
LUMCON,ioos:station:LUMCON:101:1,2010-12-04T08:00:00Z,29.2533,-90.6633,84.5,1111122 
LUMCON,ioos:station:LUMCON:101:1,2010-12-04T09:00:00Z,29.2533,-90.6633,83.4,1111122 
LUMCON,ioos:station:LUMCON:101:1,2010-12-04T10:00:00Z,29.2533,-90.6633,81.8,1111122 
LUMCON,ioos:station:LUMCON:101:1,2010-12-04T11:00:00Z,29.2533,-90.6633,80.8,1111122 
LUMCON,ioos:station:LUMCON:101:1,2010-12-04T12:00:00Z,29.2533,-90.6633,82.4,1111122 
LUMCON,ioos:station:LUMCON:101:1,2010-12-04T13:00:00Z,29.2533,-90.6633,83.5,1111122 
LUMCON,ioos:station:LUMCON:101:1,2010-12-04T14:00:00Z,29.2533,-90.6633,81.0,1111122 
LUMCON,ioos:station:LUMCON:101:1,2010-12-04T15:00:00Z,29.2533,-90.6633,72.9,1111122 
LUMCON,ioos:station:LUMCON:101:1,2010-12-04T16:00:00Z,29.2533,-90.6633,64.7,1111122 
LUMCON,ioos:station:LUMCON:101:1,2010-12-04T17:00:00Z,29.2533,-90.6633,61.6,1111122 
LUMCON,ioos:station:LUMCON:101:1,2010-12-04T18:00:00Z,29.2533,-90.6633,63.6,1111122 
LUMCON,ioos:station:LUMCON:101:1,2010-12-04T19:00:00Z,29.2533,-90.6633,64.5,1111122 
LUMCON,ioos:station:LUMCON:101:1,2010-12-04T20:00:00Z,29.2533,-90.6633,62.5,1111122 
LUMCON,ioos:station:LUMCON:101:1,2010-12-04T21:00:00Z,29.2533,-90.6633,64.1,1111122 
LUMCON,ioos:station:LUMCON:101:1,2010-12-04T22:00:00Z,29.2533,-90.6633,71.3,1111122 
LUMCON,ioos:station:LUMCON:101:1,2010-12-04T23:00:00Z,29.2533,-90.6633,75.3,1111122 
LUMCON,ioos:station:LUMCON:101:1,2010-12-05T00:00:00Z,29.2533,-90.6633,84.3,1111122 
LUMCON,ioos:station:LUMCON:101:1,2010-12-05T01:00:00Z,29.2533,-90.6633,84.8,1111122 
LUMCON,ioos:station:LUMCON:101:1,2010-12-05T02:00:00Z,29.2533,-90.6633,85.8,1111122 
LUMCON,ioos:station:LUMCON:101:1,2010-12-05T03:00:00Z,29.2533,-90.6633,88.0,1111122 
LUMCON,ioos:station:LUMCON:101:1,2010-12-05T04:00:00Z,29.2533,-90.6633,90.3,1111122 
LUMCON,ioos:station:LUMCON:101:1,2010-12-05T05:00:00Z,29.2533,-90.6633,91.5,1111122 
LUMCON,ioos:station:LUMCON:101:1,2010-12-05T06:00:00Z,29.2533,-90.6633,92.0,1111122 
LUMCON,ioos:station:LUMCON:101:1,2010-12-05T07:00:00Z,29.2533,-90.6633,92.6,1111122 
LUMCON,ioos:station:LUMCON:101:1,2010-12-05T08:00:00Z,29.2533,-90.6633,92.6,1111122 
LUMCON,ioos:station:LUMCON:101:1,2010-12-05T09:00:00Z,29.2533,-90.6633,92.0,1111122 
LUMCON,ioos:station:LUMCON:101:1,2010-12-05T10:00:00Z,29.2533,-90.6633,83.9,1111122 
LUMCON,ioos:station:LUMCON:101:1,2010-12-05T11:00:00Z,29.2533,-90.6633,79.3,1111122 
LUMCON,ioos:station:LUMCON:101:1,2010-12-05T12:00:00Z,29.2533,-90.6633,68.5,1111122 
LUMCON,ioos:station:LUMCON:101:1,2010-12-05T13:00:00Z,29.2533,-90.6633,65.0,1111122 
LUMCON,ioos:station:LUMCON:101:1,2010-12-05T14:00:00Z,29.2533,-90.6633,60.3,1111122 
LUMCON,ioos:station:LUMCON:101:1,2010-12-05T15:00:00Z,29.2533,-90.6633,59.9,1111122 
LUMCON,ioos:station:LUMCON:101:1,2010-12-05T16:00:00Z,29.2533,-90.6633,59.5,1111122 
LUMCON,ioos:station:LUMCON:101:1,2010-12-05T17:00:00Z,29.2533,-90.6633,55.6,1111122 
LUMCON,ioos:station:LUMCON:101:1,2010-12-06T00:00:00Z,29.2533,-90.6633,52.1,1111122 
LUMCON,ioos:station:LUMCON:101:1,2010-12-06T01:00:00Z,29.2533,-90.6633,53.5,1111122 
LUMCON,ioos:station:LUMCON:101:1,2010-12-06T02:00:00Z,29.2533,-90.6633,58.2,1111122 
LUMCON,ioos:station:LUMCON:101:1,2010-12-06T03:00:00Z,29.2533,-90.6633,61.5,1111122 
LUMCON,ioos:station:LUMCON:101:1,2010-12-06T04:00:00Z,29.2533,-90.6633,60.5,1111122 
LUMCON,ioos:station:LUMCON:101:1,2010-12-06T05:00:00Z,29.2533,-90.6633,65.1,1111122 
LUMCON,ioos:station:LUMCON:101:1,2010-12-06T07:00:00Z,29.2533,-90.6633,71.2,1111122 
LUMCON,ioos:station:LUMCON:101:1,2010-12-06T08:00:00Z,29.2533,-90.6633,74.7,1111122 
LUMCON,ioos:station:LUMCON:101:1,2010-12-08T05:00:00Z,29.2533,-90.6633,60.4,1111122 
LUMCON,ioos:station:LUMCON:101:1,2010-12-08T07:00:00Z,29.2533,-90.6633,74.7,1111122 
LUMCON,ioos:station:LUMCON:101:1,2010-12-08T08:00:00Z,29.2533,-90.6633,64.9,1111122 
LUMCON,ioos:station:LUMCON:101:1,2010-12-08T11:00:00Z,29.2533,-90.6633,69.0,1111122 
LUMCON,ioos:station:LUMCON:101:1,2010-12-08T12:00:00Z,29.2533,-90.6633,76.6,1111122 
LUMCON,ioos:station:LUMCON:101:1,2010-12-08T13:00:00Z,29.2533,-90.6633,81.6,1111122 
LUMCON,ioos:station:LUMCON:101:1,2010-12-08T14:00:00Z,29.2533,-90.6633,76.6,1111122 
LUMCON,ioos:station:LUMCON:101:1,2010-12-08T15:00:00Z,29.2533,-90.6633,73.6,1111122 
LUMCON,ioos:station:LUMCON:101:1,2010-12-08T16:00:00Z,29.2533,-90.6633,68.6,1111122 
LUMCON,ioos:station:LUMCON:101:1,2010-12-08T17:00:00Z,29.2533,-90.6633,63.6,1111122 
LUMCON,ioos:station:LUMCON:101:1,2010-12-08T18:00:00Z,29.2533,-90.6633,54.3,1111122 
LUMCON,ioos:station:LUMCON:101:1,2010-12-10T00:00:00Z,29.2533,-90.6633,59.5,1111122 
LUMCON,ioos:station:LUMCON:101:1,2010-12-10T01:00:00Z,29.2533,-90.6633,62.6,1111122 
LUMCON,ioos:station:LUMCON:101:1,2010-12-10T02:00:00Z,29.2533,-90.6633,68.1,1111122 
LUMCON,ioos:station:LUMCON:101:1,2010-12-10T03:00:00Z,29.2533,-90.6633,69.1,1111122 
LUMCON,ioos:station:LUMCON:101:1,2010-12-10T04:00:00Z,29.2533,-90.6633,70.5,1111122 
LUMCON,ioos:station:LUMCON:101:1,2010-12-10T05:00:00Z,29.2533,-90.6633,79.0,1111122 
LUMCON,ioos:station:LUMCON:101:1,2010-12-10T06:00:00Z,29.2533,-90.6633,83.6,1111122 
LUMCON,ioos:station:LUMCON:101:1,2010-12-10T07:00:00Z,29.2533,-90.6633,85.9,1111122 
LUMCON,ioos:station:LUMCON:101:1,2010-12-10T08:00:00Z,29.2533,-90.6633,89.4,1111122 
LUMCON,ioos:station:LUMCON:101:1,2010-12-10T09:00:00Z,29.2533,-90.6633,88.2,1111122 
LUMCON,ioos:station:LUMCON:101:1,2010-12-10T10:00:00Z,29.2533,-90.6633,89.5,1111122 
LUMCON,ioos:station:LUMCON:101:1,2010-12-10T11:00:00Z,29.2533,-90.6633,88.9,1111122 
LUMCON,ioos:station:LUMCON:101:1,2010-12-10T12:00:00Z,29.2533,-90.6633,89.5,1111122 
LUMCON,ioos:station:LUMCON:101:1,2010-12-10T13:00:00Z,29.2533,-90.6633,86.5,1111122 
LUMCON,ioos:station:LUMCON:101:1,2010-12-10T14:00:00Z,29.2533,-90.6633,84.2,1111122 
LUMCON,ioos:station:LUMCON:101:1,2010-12-10T15:00:00Z,29.2533,-90.6633,77.3,1111122 
LUMCON,ioos:station:LUMCON:101:1,2010-12-10T16:00:00Z,29.2533,-90.6633,74.8,1111122 
LUMCON,ioos:station:LUMCON:101:1,2010-12-10T17:00:00Z,29.2533,-90.6633,72.6,1111122 
LUMCON,ioos:station:LUMCON:101:1,2010-12-10T18:00:00Z,29.2533,-90.6633,69.4,1111122 
LUMCON,ioos:station:LUMCON:101:1,2010-12-10T19:00:00Z,29.2533,-90.6633,66.2,1111122 
LUMCON,ioos:station:LUMCON:101:1,2010-12-10T20:00:00Z,29.2533,-90.6633,65.1,1111122 
LUMCON,ioos:station:LUMCON:101:1,2010-12-10T21:00:00Z,29.2533,-90.6633,66.9,1111122 
LUMCON,ioos:station:LUMCON:101:1,2010-12-10T22:00:00Z,29.2533,-90.6633,72.0,1111122 
LUMCON,ioos:station:LUMCON:101:1,2010-12-10T23:00:00Z,29.2533,-90.6633,80.4,1111122 
LUMCON,ioos:station:LUMCON:101:1,2010-12-11T00:00:00Z,29.2533,-90.6633,85.3,1111122 
LUMCON,ioos:station:LUMCON:101:1,2010-12-11T01:00:00Z,29.2533,-90.6633,87.0,1111122 
LUMCON,ioos:station:LUMCON:101:1,2010-12-11T02:00:00Z,29.2533,-90.6633,88.1,1111122 
LUMCON,ioos:station:LUMCON:101:1,2010-12-11T03:00:00Z,29.2533,-90.6633,87.6,1111122 
LUMCON,ioos:station:LUMCON:101:1,2010-12-11T04:00:00Z,29.2533,-90.6633,87.6,1111122 
LUMCON,ioos:station:LUMCON:101:1,2010-12-11T05:00:00Z,29.2533,-90.6633,87.7,1111122 
LUMCON,ioos:station:LUMCON:101:1,2010-12-11T06:00:00Z,29.2533,-90.6633,88.2,1111122 
LUMCON,ioos:station:LUMCON:101:1,2010-12-11T07:00:00Z,29.2533,-90.6633,85.4,1111122 
LUMCON,ioos:station:LUMCON:101:1,2010-12-11T08:00:00Z,29.2533,-90.6633,78.5,1111122 
LUMCON,ioos:station:LUMCON:101:1,2010-12-11T09:00:00Z,29.2533,-90.6633,78.0,1111122 
LUMCON,ioos:station:LUMCON:101:1,2010-12-11T10:00:00Z,29.2533,-90.6633,80.0,1111122 
LUMCON,ioos:station:LUMCON:101:1,2010-12-11T11:00:00Z,29.2533,-90.6633,78.5,1111122 
LUMCON,ioos:station:LUMCON:101:1,2010-12-11T12:00:00Z,29.2533,-90.6633,79.6,1111122 
LUMCON,ioos:station:LUMCON:101:1,2010-12-11T13:00:00Z,29.2533,-90.6633,80.6,1111122 
LUMCON,ioos:station:LUMCON:101:1,2010-12-11T14:00:00Z,29.2533,-90.6633,77.6,1111122 
LUMCON,ioos:station:LUMCON:101:1,2010-12-11T15:00:00Z,29.2533,-90.6633,76.2,1111122 
LUMCON,ioos:station:LUMCON:101:1,2010-12-11T16:00:00Z,29.2533,-90.6633,74.8,1111122 
LUMCON,ioos:station:LUMCON:101:1,2010-12-11T17:00:00Z,29.2533,-90.6633,75.3,1111122 
LUMCON,ioos:station:LUMCON:101:1,2010-12-11T18:00:00Z,29.2533,-90.6633,76.9,1111122 
LUMCON,ioos:station:LUMCON:101:1,2010-12-11T19:00:00Z,29.2533,-90.6633,76.0,1111122 
LUMCON,ioos:station:LUMCON:101:1,2010-12-11T20:00:00Z,29.2533,-90.6633,72.9,1111122 
LUMCON,ioos:station:LUMCON:101:1,2010-12-11T21:00:00Z,29.2533,-90.6633,76.1,1111122 
LUMCON,ioos:station:LUMCON:101:1,2010-12-11T22:00:00Z,29.2533,-90.6633,77.6,1111122 
LUMCON,ioos:station:LUMCON:101:1,2010-12-11T23:00:00Z,29.2533,-90.6633,81.5,1111122 
LUMCON,ioos:station:LUMCON:101:1,2010-12-12T00:00:00Z,29.2533,-90.6633,82.1,1111122 
LUMCON,ioos:station:LUMCON:101:1,2010-12-12T01:00:00Z,29.2533,-90.6633,85.3,1111122 
LUMCON,ioos:station:LUMCON:101:1,2010-12-12T03:00:00Z,29.2533,-90.6633,84.8,1111122 
LUMCON,ioos:station:LUMCON:101:1,2010-12-12T04:00:00Z,29.2533,-90.6633,83.2,1111122 
LUMCON,ioos:station:LUMCON:101:1,2010-12-12T05:00:00Z,29.2533,-90.6633,89.7,1111122 
LUMCON,ioos:station:LUMCON:101:1,2010-12-12T06:00:00Z,29.2533,-90.6633,78.6,1111122 
LUMCON,ioos:station:LUMCON:101:1,2010-12-12T07:00:00Z,29.2533,-90.6633,74.4,1111122 
LUMCON,ioos:station:LUMCON:101:1,2010-12-12T08:00:00Z,29.2533,-90.6633,75.7,1111122 
LUMCON,ioos:station:LUMCON:101:1,2010-12-12T09:00:00Z,29.2533,-90.6633,53.5,1111122 
LUMCON,ioos:station:LUMCON:101:1,2010-12-12T10:00:00Z,29.2533,-90.6633,55.8,1111122 
LUMCON,ioos:station:LUMCON:101:1,2010-12-14T16:00:00Z,29.2533,-90.6633,68.4,1111122 
LUMCON,ioos:station:LUMCON:101:1,2010-12-15T23:00:00Z,29.2533,-90.6633,86.0,1111122 
LUMCON,ioos:station:LUMCON:101:1,2010-12-16T00:00:00Z,29.2533,-90.6633,86.6,1111122 
LUMCON,ioos:station:LUMCON:101:1,2010-12-16T01:00:00Z,29.2533,-90.6633,87.2,1111122 
LUMCON,ioos:station:LUMCON:101:1,2010-12-16T02:00:00Z,29.2533,-90.6633,86.1,1111122 
LUMCON,ioos:station:LUMCON:101:1,2010-12-16T03:00:00Z,29.2533,-90.6633,87.2,1111122 
LUMCON,ioos:station:LUMCON:101:1,2010-12-16T04:00:00Z,29.2533,-90.6633,85.1,1111122 
LUMCON,ioos:station:LUMCON:101:1,2010-12-16T05:00:00Z,29.2533,-90.6633,88.3,1111122 
LUMCON,ioos:station:LUMCON:101:1,2010-12-16T07:00:00Z,29.2533,-90.6633,87.3,1111122 
LUMCON,ioos:station:LUMCON:101:1,2010-12-16T08:00:00Z,29.2533,-90.6633,86.7,1111122 
LUMCON,ioos:station:LUMCON:101:1,2010-12-16T09:00:00Z,29.2533,-90.6633,87.3,1111122 
LUMCON,ioos:station:LUMCON:101:1,2010-12-16T10:00:00Z,29.2533,-90.6633,86.2,1111122 
LUMCON,ioos:station:LUMCON:101:1,2010-12-16T11:00:00Z,29.2533,-90.6633,83.0,1111122 
LUMCON,ioos:station:LUMCON:101:1,2010-12-16T12:00:00Z,29.2533,-90.6633,86.7,1111122 
LUMCON,ioos:station:LUMCON:101:1,2010-12-16T13:00:00Z,29.2533,-90.6633,86.2,1111122 
LUMCON,ioos:station:LUMCON:101:1,2010-12-16T14:00:00Z,29.2533,-90.6633,88.5,1111122 
LUMCON,ioos:station:LUMCON:101:1,2010-12-16T16:00:00Z,29.2533,-90.6633,74.4,1111122 
LUMCON,ioos:station:LUMCON:101:1,2010-12-16T17:00:00Z,29.2533,-90.6633,72.1,1111122 
LUMCON,ioos:station:LUMCON:101:1,2010-12-16T18:00:00Z,29.2533,-90.6633,69.1,1111122 
LUMCON,ioos:station:LUMCON:101:1,2010-12-16T19:00:00Z,29.2533,-90.6633,67.8,1111122 
LUMCON,ioos:station:LUMCON:101:1,2010-12-16T20:00:00Z,29.2533,-90.6633,67.8,1111122 
LUMCON,ioos:station:LUMCON:101:1,2010-12-16T21:00:00Z,29.2533,-90.6633,64.1,1111122 
LUMCON,ioos:station:LUMCON:101:1,2010-12-17T00:00:00Z,29.2533,-90.6633,88.0,1111122 
LUMCON,ioos:station:LUMCON:101:1,2010-12-17T02:00:00Z,29.2533,-90.6633,90.2,1111122 
LUMCON,ioos:station:LUMCON:101:1,2010-12-17T03:00:00Z,29.2533,-90.6633,90.8,1111122 
LUMCON,ioos:station:LUMCON:101:1,2010-12-17T04:00:00Z,29.2533,-90.6633,92.0,1111122 
LUMCON,ioos:station:LUMCON:101:1,2010-12-17T05:00:00Z,29.2533,-90.6633,90.9,1111122 
LUMCON,ioos:station:LUMCON:101:1,2010-12-17T07:00:00Z,29.2533,-90.6633,92.0,1111122 
LUMCON,ioos:station:LUMCON:101:1,2010-12-17T08:00:00Z,29.2533,-90.6633,89.1,1111122 
LUMCON,ioos:station:LUMCON:101:1,2010-12-17T09:00:00Z,29.2533,-90.6633,84.6,1111122 
LUMCON,ioos:station:LUMCON:101:1,2010-12-17T11:00:00Z,29.2533,-90.6633,91.3,1111122 
LUMCON,ioos:station:LUMCON:101:1,2010-12-17T12:00:00Z,29.2533,-90.6633,94.3,1111122 
LUMCON,ioos:station:LUMCON:101:1,2010-12-17T13:00:00Z,29.2533,-90.6633,94.9,1111122 
LUMCON,ioos:station:LUMCON:101:1,2010-12-17T14:00:00Z,29.2533,-90.6633,94.9,1111122 
LUMCON,ioos:station:LUMCON:101:1,2010-12-17T15:00:00Z,29.2533,-90.6633,94.9,1111122 
LUMCON,ioos:station:LUMCON:101:1,2010-12-17T16:00:00Z,29.2533,-90.6633,94.3,1111122 
LUMCON,ioos:station:LUMCON:101:1,2010-12-17T17:00:00Z,29.2533,-90.6633,94.9,1111122 
LUMCON,ioos:station:LUMCON:101:1,2010-12-17T18:00:00Z,29.2533,-90.6633,94.3,1111122 
LUMCON,ioos:station:LUMCON:101:1,2010-12-17T19:00:00Z,29.2533,-90.6633,94.9,1111122 
LUMCON,ioos:station:LUMCON:101:1,2010-12-17T20:00:00Z,29.2533,-90.6633,95.5,1111122 
LUMCON,ioos:station:LUMCON:101:1,2010-12-17T21:00:00Z,29.2533,-90.6633,93.6,1111122 
LUMCON,ioos:station:LUMCON:101:1,2010-12-17T22:00:00Z,29.2533,-90.6633,92.4,1111122 
LUMCON,ioos:station:LUMCON:101:1,2010-12-17T23:00:00Z,29.2533,-90.6633,92.4,1111122 
LUMCON,ioos:station:LUMCON:101:1,2010-12-18T00:00:00Z,29.2533,-90.6633,92.4,1111122 
LUMCON,ioos:station:LUMCON:101:1,2010-12-18T01:00:00Z,29.2533,-90.6633,92.9,1111122 
LUMCON,ioos:station:LUMCON:101:1,2010-12-18T02:00:00Z,29.2533,-90.6633,91.6,1111122 
LUMCON,ioos:station:LUMCON:101:1,2010-12-18T03:00:00Z,29.2533,-90.6633,92.2,1111122 
LUMCON,ioos:station:LUMCON:101:1,2010-12-18T04:00:00Z,29.2533,-90.6633,94.1,1111122 
LUMCON,ioos:station:LUMCON:101:1,2010-12-18T06:00:00Z,29.2533,-90.6633,93.4,1111122 
LUMCON,ioos:station:LUMCON:101:1,2010-12-18T07:00:00Z,29.2533,-90.6633,92.7,1111122 
LUMCON,ioos:station:LUMCON:101:1,2010-12-18T08:00:00Z,29.2533,-90.6633,93.4,1111122 
LUMCON,ioos:station:LUMCON:101:1,2010-12-18T09:00:00Z,29.2533,-90.6633,92.7,1111122 
LUMCON,ioos:station:LUMCON:101:1,2010-12-18T10:00:00Z,29.2533,-90.6633,92.7,1111122 
LUMCON,ioos:station:LUMCON:101:1,2010-12-18T11:00:00Z,29.2533,-90.6633,92.7,1111122 
LUMCON,ioos:station:LUMCON:101:1,2010-12-18T12:00:00Z,29.2533,-90.6633,92.0,1111122 
LUMCON,ioos:station:LUMCON:101:1,2010-12-18T13:00:00Z,29.2533,-90.6633,92.0,1111122 
LUMCON,ioos:station:LUMCON:101:1,2010-12-18T14:00:00Z,29.2533,-90.6633,91.4,1111122 
LUMCON,ioos:station:LUMCON:101:1,2010-12-18T15:00:00Z,29.2533,-90.6633,91.4,1111122 
LUMCON,ioos:station:LUMCON:101:1,2010-12-18T16:00:00Z,29.2533,-90.6633,89.5,1111122 
LUMCON,ioos:station:LUMCON:101:1,2010-12-18T17:00:00Z,29.2533,-90.6633,88.3,1111122 
LUMCON,ioos:station:LUMCON:101:1,2010-12-18T18:00:00Z,29.2533,-90.6633,85.4,1111122 
LUMCON,ioos:station:LUMCON:101:1,2010-12-18T19:00:00Z,29.2533,-90.6633,82.5,1111122 
LUMCON,ioos:station:LUMCON:101:1,2010-12-18T20:00:00Z,29.2533,-90.6633,80.2,1111122 
LUMCON,ioos:station:LUMCON:101:1,2010-12-18T21:00:00Z,29.2533,-90.6633,77.0,1111122 
LUMCON,ioos:station:LUMCON:101:1,2010-12-18T22:00:00Z,29.2533,-90.6633,71.9,1111122 
LUMCON,ioos:station:LUMCON:101:1,2010-12-18T23:00:00Z,29.2533,-90.6633,70.5,1111122 
LUMCON,ioos:station:LUMCON:101:1,2010-12-19T00:00:00Z,29.2533,-90.6633,71.8,1111122 
LUMCON,ioos:station:LUMCON:101:1,2010-12-19T01:00:00Z,29.2533,-90.6633,71.2,1111122 
LUMCON,ioos:station:LUMCON:101:1,2010-12-19T02:00:00Z,29.2533,-90.6633,71.3,1111122 
LUMCON,ioos:station:LUMCON:101:1,2010-12-19T04:00:00Z,29.2533,-90.6633,72.1,1111122 
LUMCON,ioos:station:LUMCON:101:1,2010-12-19T05:00:00Z,29.2533,-90.6633,71.6,1111122 
LUMCON,ioos:station:LUMCON:101:1,2010-12-19T06:00:00Z,29.2533,-90.6633,71.0,1111122 
LUMCON,ioos:station:LUMCON:101:1,2010-12-19T07:00:00Z,29.2533,-90.6633,74.0,1111122 
LUMCON,ioos:station:LUMCON:101:1,2010-12-19T08:00:00Z,29.2533,-90.6633,78.8,1111122 
LUMCON,ioos:station:LUMCON:101:1,2010-12-19T09:00:00Z,29.2533,-90.6633,78.7,1111122 
LUMCON,ioos:station:LUMCON:101:1,2010-12-19T10:00:00Z,29.2533,-90.6633,81.5,1111122 
LUMCON,ioos:station:LUMCON:101:1,2010-12-19T11:00:00Z,29.2533,-90.6633,83.3,1111122 
LUMCON,ioos:station:LUMCON:101:1,2010-12-19T12:00:00Z,29.2533,-90.6633,84.4,1111122 
LUMCON,ioos:station:LUMCON:101:1,2010-12-19T13:00:00Z,29.2533,-90.6633,85.6,1111122 
LUMCON,ioos:station:LUMCON:101:1,2010-12-19T14:00:00Z,29.2533,-90.6633,81.0,1111122 
LUMCON,ioos:station:LUMCON:101:1,2010-12-19T15:00:00Z,29.2533,-90.6633,69.0,1111122 
LUMCON,ioos:station:LUMCON:101:1,2010-12-19T16:00:00Z,29.2533,-90.6633,65.9,1111122 
LUMCON,ioos:station:LUMCON:101:1,2010-12-19T17:00:00Z,29.2533,-90.6633,60.7,1111122 
LUMCON,ioos:station:LUMCON:101:1,2010-12-19T18:00:00Z,29.2533,-90.6633,53.3,1111122 
LUMCON,ioos:station:LUMCON:101:1,2010-12-19T19:00:00Z,29.2533,-90.6633,53.6,1111122 
LUMCON,ioos:station:LUMCON:101:1,2010-12-19T20:00:00Z,29.2533,-90.6633,47.8,1111122 
LUMCON,ioos:station:LUMCON:101:1,2010-12-20T00:00:00Z,29.2533,-90.6633,67.6,1111122 
LUMCON,ioos:station:LUMCON:101:1,2010-12-20T01:00:00Z,29.2533,-90.6633,67.6,1111122 
LUMCON,ioos:station:LUMCON:101:1,2010-12-20T02:00:00Z,29.2533,-90.6633,62.1,1111122 
LUMCON,ioos:station:LUMCON:101:1,2010-12-20T03:00:00Z,29.2533,-90.6633,61.2,1111122 
LUMCON,ioos:station:LUMCON:101:1,2010-12-20T04:00:00Z,29.2533,-90.6633,68.0,1111122 
LUMCON,ioos:station:LUMCON:101:1,2010-12-20T05:00:00Z,29.2533,-90.6633,74.9,1111122 
LUMCON,ioos:station:LUMCON:101:1,2010-12-20T06:00:00Z,29.2533,-90.6633,74.9,1111122 
LUMCON,ioos:station:LUMCON:101:1,2010-12-20T07:00:00Z,29.2533,-90.6633,74.4,1111122 
LUMCON,ioos:station:LUMCON:101:1,2010-12-20T08:00:00Z,29.2533,-90.6633,79.2,1111122 
LUMCON,ioos:station:LUMCON:101:1,2010-12-20T09:00:00Z,29.2533,-90.6633,80.8,1111122 
LUMCON,ioos:station:LUMCON:101:1,2010-12-20T10:00:00Z,29.2533,-90.6633,84.7,1111122 
LUMCON,ioos:station:LUMCON:101:1,2010-12-20T11:00:00Z,29.2533,-90.6633,82.4,1111122 
LUMCON,ioos:station:LUMCON:101:1,2010-12-20T12:00:00Z,29.2533,-90.6633,81.8,1111122 
LUMCON,ioos:station:LUMCON:101:1,2010-12-20T13:00:00Z,29.2533,-90.6633,80.6,1111122 
LUMCON,ioos:station:LUMCON:101:1,2010-12-20T14:00:00Z,29.2533,-90.6633,79.1,1111122 
LUMCON,ioos:station:LUMCON:101:1,2010-12-20T15:00:00Z,29.2533,-90.6633,71.1,1111122 
LUMCON,ioos:station:LUMCON:101:1,2010-12-20T16:00:00Z,29.2533,-90.6633,64.1,1111122 
LUMCON,ioos:station:LUMCON:101:1,2010-12-20T17:00:00Z,29.2533,-90.6633,64.8,1111122 
LUMCON,ioos:station:LUMCON:101:1,2010-12-20T18:00:00Z,29.2533,-90.6633,63.7,1111122 
LUMCON,ioos:station:LUMCON:101:1,2010-12-20T19:00:00Z,29.2533,-90.6633,67.3,1111122 
LUMCON,ioos:station:LUMCON:101:1,2010-12-20T20:00:00Z,29.2533,-90.6633,67.0,1111122 
LUMCON,ioos:station:LUMCON:101:1,2010-12-20T21:00:00Z,29.2533,-90.6633,69.3,1111122 
LUMCON,ioos:station:LUMCON:101:1,2010-12-20T22:00:00Z,29.2533,-90.6633,74.4,1111122 
LUMCON,ioos:station:LUMCON:101:1,2010-12-20T23:00:00Z,29.2533,-90.6633,78.9,1111122 
LUMCON,ioos:station:LUMCON:101:1,2010-12-21T00:00:00Z,29.2533,-90.6633,86.5,1111122 
LUMCON,ioos:station:LUMCON:101:1,2010-12-21T01:00:00Z,29.2533,-90.6633,88.2,1111122 
LUMCON,ioos:station:LUMCON:101:1,2010-12-21T02:00:00Z,29.2533,-90.6633,88.9,1111122 
LUMCON,ioos:station:LUMCON:101:1,2010-12-21T03:00:00Z,29.2533,-90.6633,88.3,1111122 
LUMCON,ioos:station:LUMCON:101:1,2010-12-21T04:00:00Z,29.2533,-90.6633,87.8,1111122 
LUMCON,ioos:station:LUMCON:101:1,2010-12-21T05:00:00Z,29.2533,-90.6633,88.9,1111122 